• In Uzbekistan
  • List of Countries
  • For 7 days
  • Water Temperature
  • Weather Map
  • Weather Widgets
  • user-avatar
    Login

    Hourly Weather Dhaka

    Today, 23 February, Sunday

    Time Temperature Precipitation Wind Pressure Humidity
    00:00 +21°C° 0 mm 0 mps 761 mmHg 37%
    01:00 +20°C° 0 mm 0 mps 760 mmHg 38%
    02:00 +20°C° 0 mm 0 mps 760 mmHg 40%
    03:00 +20°C° 0 mm 0 mps 760 mmHg 41%
    04:00 +19°C° 0 mm 0 mps 760 mmHg 43%
    05:00 +19°C° 0 mm 0 mps 760 mmHg 45%
    06:00 +18°C° 0 mm 0 mps 760 mmHg 47%
    07:00 +21°C° 0 mm 0 mps 761 mmHg 42%
    08:00 +23°C° 0 mm 0 mps 761 mmHg 38%
    09:00 +25°C° 0 mm 0 mps 762 mmHg 33%
    10:00 +27°C° 0 mm 0 mps 762 mmHg 30%
    11:00 +29°C° 0 mm 0 mps 761 mmHg 27%
    12:00 +31°C° 0 mm 0 mps 761 mmHg 23%
    13:00 +33°C° 0 mm 1 mps 760 mmHg 22%
    14:00 +34°C° 0 mm 1 mps 759 mmHg 20%
    15:00 +34°C° 0 mm 1 mps 758 mmHg 19%
    16:00 +32°C° 0 mm 1 mps 758 mmHg 22%
    17:00 +31°C° 0 mm 1 mps 758 mmHg 24%
    18:00 +29°C° 0 mm 1 mps 757 mmHg 27%
    19:00 +28°C° 0 mm 1 mps 758 mmHg 31%
    20:00 +27°C° 0 mm 1 mps 758 mmHg 35%
    21:00 +25°C° 0 mm 1 mps 759 mmHg 38%
    22:00 +25°C° 0 mm 2 mps 759 mmHg 41%
    23:00 +24°C° 0 mm 2 mps 759 mmHg 44%

    Tomorrow, 24 February, Monday

    Time Temperature Precipitation Wind Pressure Humidity
    00:00 +24°C° 0 mm 2 mps 759 mmHg 47%
    01:00 +23°C° 0 mm 2 mps 758 mmHg 49%
    02:00 +23°C° 0 mm 2 mps 758 mmHg 50%
    03:00 +22°C° 0 mm 1 mps 758 mmHg 52%
    04:00 +22°C° 0 mm 1 mps 758 mmHg 53%
    05:00 +21°C° 0 mm 1 mps 758 mmHg 55%
    06:00 +20°C° 0 mm 2 mps 758 mmHg 56%
    07:00 +23°C° 0 mm 1 mps 759 mmHg 52%
    08:00 +25°C° 0 mm 1 mps 759 mmHg 48%
    09:00 +26°C° 0 mm 1 mps 760 mmHg 44%
    10:00 +28°C° 0 mm 1 mps 760 mmHg 39%
    11:00 +30°C° 0 mm 1 mps 759 mmHg 34%
    12:00 +32°C° 0 mm 2 mps 759 mmHg 29%
    13:00 +33°C° 0 mm 1 mps 758 mmHg 28%
    14:00 +33°C° 0 mm 1 mps 757 mmHg 27%
    15:00 +34°C° 0 mm 1 mps 756 mmHg 25%
    16:00 +32°C° 0 mm 1 mps 756 mmHg 28%
    17:00 +31°C° 0 mm 1 mps 756 mmHg 31%
    18:00 +29°C° 0 mm 1 mps 756 mmHg 33%
    19:00 +28°C° 0 mm 1 mps 756 mmHg 37%
    20:00 +27°C° 0 mm 2 mps 757 mmHg 40%
    21:00 +26°C° 0 mm 2 mps 757 mmHg 44%
    22:00 +25°C° 0 mm 2 mps 757 mmHg 47%
    23:00 +25°C° 0 mm 2 mps 757 mmHg 50%

    Day after tomorrow, 25 February, Tuesday

    Time Temperature Precipitation Wind Pressure Humidity
    00:00 +25°C° 0 mm 2 mps 757 mmHg 53%
    01:00 +24°C° 0 mm 2 mps 757 mmHg 54%
    02:00 +24°C° 0 mm 2 mps 757 mmHg 54%
    03:00 +24°C° 0 mm 2 mps 756 mmHg 55%
    04:00 +23°C° 0.2 mm 1 mps 756 mmHg 58%
    05:00 +23°C° 0.2 mm 1 mps 757 mmHg 62%
    06:00 +20°C° 0.2 mm 0 mps 757 mmHg 65%
    07:00 +23°C° 0.2 mm 1 mps 758 mmHg 63%
    08:00 +23°C° 0.2 mm 1 mps 758 mmHg 61%
    09:00 +24°C° 0.2 mm 1 mps 759 mmHg 59%
    10:00 +26°C° 0.1 mm 2 mps 759 mmHg 54%
    11:00 +27°C° 0.1 mm 2 mps 759 mmHg 49%
    12:00 +28°C° 0.1 mm 3 mps 758 mmHg 45%
    13:00 +27°C° 0.1 mm 4 mps 758 mmHg 49%
    14:00 +26°C° 0.1 mm 4 mps 757 mmHg 53%
    15:00 +25°C° 0.1 mm 5 mps 757 mmHg 58%
    16:00 +25°C° 0 mm 4 mps 756 mmHg 57%
    17:00 +25°C° 0 mm 2 mps 756 mmHg 57%
    18:00 +24°C° 0 mm 1 mps 756 mmHg 57%
    19:00 +24°C° 0 mm 1 mps 757 mmHg 60%
    20:00 +23°C° 0 mm 2 mps 757 mmHg 64%
    21:00 +21°C° 0 mm 2 mps 757 mmHg 68%
    22:00 +21°C° 0 mm 2 mps 757 mmHg 69%
    23:00 +21°C° 0 mm 2 mps 758 mmHg 69%

    26 February, Wednesday

    Time Temperature Precipitation Wind Pressure Humidity
    00:00 +21°C° 0 mm 2 mps 758 mmHg 70%
    01:00 +20°C° 0 mm 2 mps 758 mmHg 71%
    02:00 +21°C° 0 mm 1 mps 757 mmHg 72%
    03:00 +20°C° 0 mm 1 mps 757 mmHg 73%
    04:00 +20°C° 0 mm 1 mps 757 mmHg 73%
    05:00 +20°C° 0 mm 1 mps 757 mmHg 74%
    06:00 +20°C° 0 mm 1 mps 758 mmHg 74%
    07:00 +21°C° 0.1 mm 1 mps 758 mmHg 69%
    08:00 +23°C° 0.1 mm 1 mps 759 mmHg 65%
    09:00 +24°C° 0.1 mm 1 mps 759 mmHg 60%
    10:00 +25°C° 0.1 mm 1 mps 759 mmHg 56%
    11:00 +27°C° 0.1 mm 1 mps 759 mmHg 51%
    12:00 +28°C° 0.1 mm 1 mps 758 mmHg 47%
    13:00 +28°C° 0.4 mm 1 mps 758 mmHg 47%
    14:00 +28°C° 0.4 mm 1 mps 757 mmHg 48%
    15:00 +28°C° 0.4 mm 2 mps 756 mmHg 49%
    16:00 +26°C° 0.8 mm 2 mps 756 mmHg 57%
    17:00 +25°C° 0.8 mm 2 mps 756 mmHg 65%
    18:00 +23°C° 0.8 mm 2 mps 756 mmHg 73%
    19:00 +23°C° 0.8 mm 2 mps 757 mmHg 75%
    20:00 +22°C° 0.8 mm 1 mps 757 mmHg 76%
    21:00 +22°C° 0.8 mm 1 mps 758 mmHg 78%
    22:00 +21°C° 0 mm 1 mps 758 mmHg 79%
    23:00 +21°C° 0 mm 1 mps 758 mmHg 80%

    27 February, Thursday

    Time Temperature Precipitation Wind Pressure Humidity
    00:00 +20°C° 0 mm 1 mps 758 mmHg 81%
    01:00 +20°C° 0 mm 1 mps 758 mmHg 82%
    02:00 +20°C° 0 mm 1 mps 757 mmHg 84%
    03:00 +19°C° 0 mm 1 mps 757 mmHg 85%
    04:00 +19°C° 0 mm 1 mps 757 mmHg 86%
    05:00 +19°C° 0 mm 1 mps 757 mmHg 87%
    06:00 +19°C° 0 mm 1 mps 758 mmHg 88%
    07:00 +21°C° 0 mm 1 mps 758 mmHg 81%
    08:00 +22°C° 0 mm 1 mps 759 mmHg 73%
    09:00 +24°C° 0 mm 1 mps 759 mmHg 66%
    10:00 +26°C° 0 mm 1 mps 759 mmHg 57%
    11:00 +28°C° 0 mm 1 mps 759 mmHg 48%
    12:00 +30°C° 0 mm 1 mps 759 mmHg 39%
    13:00 +30°C° 0 mm 2 mps 758 mmHg 36%
    14:00 +31°C° 0 mm 2 mps 757 mmHg 33%
    15:00 +31°C° 0 mm 3 mps 756 mmHg 30%
    16:00 +30°C° 0 mm 3 mps 756 mmHg 33%
    17:00 +28°C° 0 mm 2 mps 756 mmHg 36%
    18:00 +27°C° 0 mm 1 mps 756 mmHg 39%
    19:00 +26°C° 0 mm 2 mps 757 mmHg 43%
    20:00 +25°C° 0 mm 2 mps 758 mmHg 48%
    21:00 +24°C° 0 mm 2 mps 758 mmHg 53%
    22:00 +24°C° 0 mm 2 mps 758 mmHg 56%
    23:00 +23°C° 0 mm 2 mps 758 mmHg 60%

    28 February, Friday

    Time Temperature Precipitation Wind Pressure Humidity
    00:00 +23°C° 0 mm 1 mps 758 mmHg 63%
    01:00 +21°C° 0 mm 2 mps 758 mmHg 63%
    02:00 +21°C° 0 mm 2 mps 757 mmHg 63%
    03:00 +21°C° 0 mm 2 mps 757 mmHg 63%
    04:00 +21°C° 0 mm 2 mps 757 mmHg 63%
    05:00 +20°C° 0 mm 2 mps 757 mmHg 62%
    06:00 +20°C° 0 mm 2 mps 757 mmHg 61%
    07:00 +23°C° 0 mm 2 mps 757 mmHg 57%
    08:00 +25°C° 0 mm 2 mps 758 mmHg 52%
    09:00 +26°C° 0 mm 3 mps 758 mmHg 48%
    10:00 +28°C° 0 mm 2 mps 758 mmHg 42%
    11:00 +30°C° 0 mm 2 mps 757 mmHg 36%
    12:00 +31°C° 0 mm 1 mps 757 mmHg 30%
    13:00 +32°C° 0 mm 1 mps 756 mmHg 28%
    14:00 +32°C° 0 mm 2 mps 755 mmHg 27%
    15:00 +32°C° 0 mm 2 mps 755 mmHg 25%
    16:00 +31°C° 0 mm 2 mps 754 mmHg 29%
    17:00 +29°C° 0 mm 2 mps 754 mmHg 32%
    18:00 +28°C° 0 mm 2 mps 754 mmHg 36%
    19:00 +27°C° 0 mm 2 mps 755 mmHg 37%
    20:00 +26°C° 0 mm 2 mps 755 mmHg 39%
    21:00 +26°C° 0 mm 2 mps 756 mmHg 40%
    22:00 +25°C° 0 mm 2 mps 756 mmHg 42%
    23:00 +24°C° 0 mm 2 mps 756 mmHg 43%
    Show more